Whiteman AFB, MO

4:34 AM CST on December 15, 2019 (GMT -0600)
Whiteman Air Force Base

Weather History for KSZL - October, 2019

Change the Weather History Date:

Wednesday, October 23, 2019

  Actual Average Record
Temperature  
Mean Temperature 55 °F -  
Max Temperature 71 °F 63 °F 80 °F (2001)
Min Temperature 40 °F 45 °F 30 °F (2006)
Degree Days  
Heating Degree Days 10    
Growing Degree Days 5 (Base 50)    
Moisture  
Dew Point 41 °F    
Average Humidity 64    
Maximum Humidity 92    
Minimum Humidity 34    
Precipitation  
Precipitation 0.00 in - - ()
Sea Level Pressure  
Sea Level Pressure 29.92 in    
Wind  
Wind Speed 12 mph (SW)    
Max Wind Speed 29 mph    
Max Gust Speed 40 mph    
Visibility 10 miles    
Events      
Averages and records for this station are not official NWS values.
T = Trace of Precipitation, MM = Missing Value Source: NWS Daily Summary

Daily Weather History Graph

Daily Weather History Graph

Search for Another Location

Airport or City:

Astronomy

Oct. 23, 2019 Rise Set
Actual Time 7:31 AM CDT 6:25 PM CDT
Civil Twilight 7:04 AM CDT 6:52 PM CDT
Nautical Twilight 6:33 AM CDT 7:23 PM CDT
Astronomical Twilight 6:02 AM CDT 7:53 PM CDT
Moon 1:55 AM CDT (10/23) 4:11 PM CDT (10/23)
Length of Visible Light 11h 47m
Length of Day
10h 53m
Waning Crescent, 26% of the Moon is Illuminated
Oct 23
Waning Crescent
Oct 27
New
Nov 4
First Quarter
Nov 12
Full
Nov 19
Last Quarter

Hourly Weather History & Observations

Time (CDT) Temp. Windchill Dew Point Humidity Pressure Visibility Wind Dir Wind Speed Gust Speed Precip Events Conditions
12:56 AM 40.3 °F 34.9 °F 38.1 °F 92% 29.94 in 10.0 mi South 8.1 mph - N/A   Partly Cloudy
1:56 AM 41.5 °F 35.9 °F 39.4 °F 92% 29.91 in 10.0 mi SSW 9.2 mph - N/A   Clear
2:56 AM 42.6 °F 37.2 °F 39.6 °F 89% 29.91 in 10.0 mi South 9.2 mph - N/A   Scattered Clouds
3:56 AM 42.1 °F 36.1 °F 38.8 °F 88% 29.89 in 10.0 mi South 10.4 mph - N/A   Partly Cloudy
4:56 AM 44.4 °F 38.6 °F 37.6 °F 77% 29.90 in 10.0 mi SSW 11.5 mph - N/A   Scattered Clouds
5:56 AM 42.3 °F 36.3 °F 38.1 °F 85% 29.91 in 10.0 mi SSW 10.4 mph - N/A   Scattered Clouds
6:56 AM 40.8 °F 34.5 °F 38.7 °F 92% 29.91 in 10.0 mi South 10.4 mph - N/A   Scattered Clouds
7:56 AM 46.0 °F 41.0 °F 39.9 °F 79% 29.91 in 10.0 mi SSW 10.4 mph - N/A   Mostly Cloudy
8:56 AM 50.0 °F - 41.0 °F 71% 29.92 in 10.0 mi SSW 12.7 mph - N/A   Overcast
9:56 AM 55.0 °F - 40.1 °F 57% 29.92 in 10.0 mi SSW 15.0 mph - N/A   Overcast
10:56 AM 60.4 °F - 39.6 °F 46% 29.91 in 10.0 mi SW 16.1 mph 24.2 mph N/A   Mostly Cloudy
11:56 AM 65.5 °F - 38.5 °F 37% 29.87 in 10.0 mi SW 26.5 mph 32.2 mph N/A   Mostly Cloudy
1:56 PM 70.9 °F - 41.2 °F 34% 29.83 in 10.0 mi SW 26.5 mph 34.5 mph N/A   Scattered Clouds
2:56 PM 70.7 °F - 41.0 °F 34% 29.80 in 10.0 mi SW 28.8 mph 36.8 mph N/A   Scattered Clouds
3:56 PM 70.0 °F - 41.7 °F 36% 29.83 in 10.0 mi SW 25.3 mph 40.3 mph N/A   Mostly Cloudy
4:56 PM 69.3 °F - 43.2 °F 39% 29.84 in 10.0 mi SW 17.3 mph 25.3 mph N/A   Scattered Clouds
5:56 PM 66.7 °F - 44.1 °F 44% 29.88 in 10.0 mi West 13.8 mph - N/A   Mostly Cloudy
6:56 PM 62.2 °F - 41.7 °F 47% 29.92 in 10.0 mi West 6.9 mph - N/A   Mostly Cloudy
7:56 PM 59.5 °F - 41.9 °F 52% 29.96 in 10.0 mi WNW 6.9 mph - N/A   Mostly Cloudy
8:56 PM 57.7 °F - 44.4 °F 61% 30.01 in 10.0 mi NNW 9.2 mph - N/A   Scattered Clouds
9:56 PM 54.9 °F - 43.3 °F 65% 30.04 in 10.0 mi NNW 10.4 mph - N/A   Mostly Cloudy
10:56 PM 52.0 °F - 43.5 °F 73% 30.08 in 10.0 mi NNW 5.8 mph - N/A   Mostly Cloudy
11:56 PM 51.8 °F - 43.0 °F 72% 30.10 in 10.0 mi North 6.9 mph - N/A   Overcast